Theta_e
291 291 289 290 289 289 288 288 289 289 289 288 289 288 288 288 288 287 287 288 288 288 288 287 287 288 288 287 287 287 287 288 288 288 288 288 288 292 298 300 303 305 307 310 313 314 316 316 317 317 318 319 319 319 319 320 320 321 321 322 323 323 323 323 323 322 322 323 324 324 325 326 327 328 330 331 332 333 334 337 339 340 341 342 342
291 290 290 289 288 288 288 288 288 288 288 289 288 287 287 287 287 287 288 287 288 290 287 287 287 287 287 287 287 287 287 287 287 287 288 288 288 290 295 298 301 304 305 307 311 312 314 315 315 317 317 318 318 318 317 318 320 320 320 320 321 322 322 322 322 322 322 322 323 323 323 323 324 324 326 327 328 330 331 332 334 337 338 340 340
291 290 289 289 288 288 287 287 287 287 288 288 288 288 287 287 288 287 287 287 287 287 287 286 286 286 287 287 287 287 287 287 287 287 287 287 287 288 290 295 298 301 303 306 308 310 311 312 314 315 315 316 317 317 316 317 319 319 318 319 321 322 322 321 320 320 320 321 323 323 322 322 323 324 325 325 326 327 329 330 331 332 335 337 338
290 290 289 289 288 287 287 287 287 287 288 288 288 288 288 288 287 287 287 287 287 287 287 285 285 286 286 286 286 286 286 286 286 287 287 287 287 287 288 291 295 298 300 303 306 308 309 310 312 313 314 314 315 315 315 316 318 316 317 318 320 320 320 319 318 318 319 321 321 322 322 322 322 323 323 323 324 325 326 328 329 330 331 333 335
290 290 291 288 288 287 286 288 287 288 288 287 288 287 288 287 288 288 286 286 286 286 287 285 285 285 285 286 286 286 286 286 286 287 287 287 286 286 287 289 289 294 297 300 303 306 309 309 310 311 312 313 313 312 314 316 315 314 315 318 319 319 318 316 316 318 320 320 319 319 320 320 320 321 322 322 323 323 324 325 326 328 329 330 332
290 289 289 288 287 287 286 286 286 287 288 287 286 286 286 286 287 288 290 286 285 285 284 285 285 284 284 285 285 285 286 286 286 286 286 286 286 286 287 287 287 289 291 297 299 302 306 308 308 307 308 308 308 310 313 313 313 313 314 317 317 316 316 315 315 318 319 317 316 316 317 318 319 319 320 321 321 322 323 324 326 328 329 329 329
290 289 288 288 287 287 286 286 287 287 286 286 286 286 286 286 286 285 284 284 284 286 284 284 284 285 285 286 285 286 285 285 285 285 285 285 286 286 287 287 288 289 291 290 294 298 303 305 306 305 306 306 307 309 311 311 311 312 313 315 314 314 314 314 314 316 315 314 314 315 316 316 317 318 319 319 320 321 322 324 326 326 327 328 329
290 289 288 288 287 287 286 286 287 287 286 285 286 286 286 286 285 284 283 284 284 283 284 284 284 285 285 285 285 286 285 284 285 285 286 286 286 286 286 287 288 289 294 290 291 293 300 302 303 303 303 304 305 307 308 309 309 310 311 312 313 312 312 312 313 314 314 313 313 314 314 314 315 316 318 318 319 320 320 322 323 324 325 326 326
290 289 288 288 287 287 286 286 287 286 285 285 285 286 286 286 285 285 283 283 283 283 283 284 284 284 284 283 284 285 284 284 285 285 287 285 285 285 286 287 289 292 288 289 290 291 295 299 299 300 300 302 303 305 305 307 308 308 310 311 311 311 311 311 311 312 312 312 312 312 313 313 313 315 316 317 317 318 319 320 320 321 322 324 325
289 289 288 288 287 287 286 286 286 285 285 285 285 285 285 285 284 283 283 283 283 283 283 283 284 284 283 283 283 283 283 284 285 289 284 284 284 285 287 286 286 287 288 289 289 289 289 292 296 295 296 299 302 303 304 305 306 307 309 310 310 310 309 309 310 311 310 310 310 311 311 312 313 314 315 316 316 317 317 318 319 320 321 321 323
289 288 288 288 287 286 286 285 286 285 285 285 284 285 285 283 284 283 283 284 283 283 283 284 283 283 283 283 283 282 283 285 285 284 284 284 286 288 286 284 285 285 286 287 286 286 286 287 286 286 288 296 300 302 302 303 302 304 307 308 308 309 310 309 309 309 309 309 310 311 311 312 313 314 315 315 315 315 316 317 318 319 319 320 321
288 288 288 287 286 286 285 285 285 285 284 284 284 284 283 283 283 284 284 284 283 282 282 282 282 281 283 282 282 282 282 285 283 283 284 283 283 284 283 285 283 284 284 285 285 285 286 286 287 286 287 291 297 298 299 299 298 300 303 306 308 309 309 308 308 308 308 309 310 311 311 312 313 314 314 314 314 314 315 315 316 317 318 318 319
288 287 287 288 286 285 285 285 285 285 284 285 285 284 283 283 285 284 282 281 282 281 282 281 280 279 279 280 281 282 285 284 282 282 283 283 283 282 283 283 283 284 284 284 284 285 286 286 286 286 287 286 289 293 295 295 295 298 301 303 304 306 306 307 307 307 308 308 309 310 311 312 312 312 312 313 313 314 315 315 315 316 317 317 318
288 287 287 287 286 285 285 285 285 284 284 284 283 285 284 283 284 281 281 281 280 281 282 279 279 278 278 279 279 281 284 281 282 282 282 283 283 282 283 283 283 283 284 284 284 284 285 285 285 286 286 287 287 287 287 287 289 295 298 300 301 303 305 306 307 308 308 308 309 310 311 311 311 311 312 312 314 314 315 315 315 316 316 317 317
288 288 287 287 286 286 285 285 284 285 284 283 284 283 283 283 282 282 281 281 282 283 281 279 278 279 279 278 276 277 281 279 279 281 282 283 282 281 283 283 283 282 283 284 283 284 285 285 284 285 286 286 286 285 285 287 289 293 294 295 297 300 303 305 306 307 308 307 308 309 309 309 311 311 312 312 313 314 314 315 315 315 316 316 316
288 287 287 287 286 286 285 284 284 285 284 284 283 283 282 282 281 282 282 280 278 280 282 280 279 278 277 277 276 277 277 276 277 280 280 281 281 281 282 282 281 282 283 283 283 284 284 284 284 284 285 286 285 284 285 285 289 291 290 291 293 298 301 304 305 306 307 307 307 307 307 309 310 310 311 311 312 313 313 313 313 314 315 315 316
287 287 287 286 285 285 285 284 284 284 284 283 283 283 283 283 282 282 280 280 279 278 281 281 280 281 278 277 276 277 276 276 277 277 278 279 280 281 284 282 280 283 281 281 282 282 283 282 283 283 284 284 283 284 284 285 285 288 286 288 292 294 297 301 303 304 305 305 306 306 307 308 308 309 309 310 311 311 312 312 313 313 314 314 314
287 287 287 286 285 285 284 284 284 284 284 283 283 282 282 282 282 282 280 280 280 279 279 282 281 282 279 277 278 276 275 276 276 275 277 279 279 280 281 280 280 280 281 280 281 281 282 282 282 283 283 282 283 283 283 283 285 284 284 287 293 294 295 297 300 302 303 304 304 306 306 306 306 307 308 309 309 310 311 311 312 312 313 313 314
286 286 286 286 285 284 284 284 284 284 284 282 282 282 282 282 282 281 281 282 281 278 279 279 279 279 279 279 281 280 278 276 274 276 274 276 277 278 278 279 279 280 280 280 280 280 280 281 281 281 281 281 282 282 282 283 286 288 289 290 292 294 295 295 296 298 301 302 303 303 304 305 305 306 306 306 307 308 308 309 310 310 311 312 313
286 286 286 285 285 284 284 283 283 283 283 282 282 281 282 282 282 281 281 282 280 280 279 279 279 279 280 279 279 278 277 277 277 276 275 273 275 277 278 278 278 279 280 279 279 279 279 280 280 281 280 281 281 282 282 282 282 282 284 290 291 292 293 294 295 295 297 298 300 300 302 303 303 303 304 305 305 306 308 308 309 309 310 311 311
286 285 285 285 285 284 283 283 283 283 284 282 281 282 282 282 281 281 281 281 280 280 280 279 278 279 279 277 278 277 277 276 277 277 276 274 274 275 275 277 278 280 279 278 279 279 280 280 280 282 282 282 281 281 281 281 281 281 286 290 290 291 293 293 293 293 293 293 295 297 299 301 301 302 304 304 305 306 307 307 308 308 309 310 310
285 285 285 285 285 284 283 283 283 283 283 282 281 281 281 282 282 281 281 281 280 280 280 279 279 279 279 279 277 276 276 276 276 276 276 276 275 274 275 275 275 276 278 279 278 279 279 280 280 280 280 280 280 280 280 281 281 283 286 288 289 290 291 291 292 292 292 292 293 294 296 299 300 301 302 303 304 305 306 306 307 308 308 309 310
285 285 285 284 284 284 283 283 283 283 283 281 281 282 282 282 281 281 281 281 280 280 282 279 279 279 278 279 278 278 277 275 276 275 275 275 274 275 275 276 275 275 276 278 280 279 279 279 279 279 279 279 280 280 280 280 285 287 286 287 288 288 290 291 291 291 291 292 292 293 294 295 296 298 300 302 303 304 305 306 306 307 307 308 309
285 284 284 284 284 283 283 283 282 282 283 282 282 282 282 281 280 281 280 280 280 280 279 279 279 279 278 278 278 278 277 277 277 277 276 276 276 275 275 275 276 276 277 278 279 278 278 278 278 279 279 279 279 280 281 282 283 286 284 285 286 287 288 289 289 289 290 290 291 292 293 294 294 295 297 299 301 303 304 304 305 305 306 307 308
284 284 284 283 284 283 282 282 282 282 283 282 281 281 281 281 280 280 280 280 280 280 279 279 279 279 279 278 278 278 277 277 278 277 277 277 276 274 275 275 273 275 276 276 276 277 278 278 279 279 278 278 280 280 281 281 280 283 284 283 284 285 285 286 287 288 289 289 290 291 292 293 294 294 296 297 299 301 302 303 303 304 305 305 306
285 284 285 284 284 284 283 283 282 282 282 281 281 281 281 281 280 280 280 280 279 280 279 279 279 278 278 278 277 278 277 277 277 277 276 276 274 274 274 274 274 274 276 275 275 276 276 277 277 278 278 278 278 279 279 279 279 283 283 281 281 283 284 285 287 288 288 289 290 291 290 291 292 292 293 296 297 298 299 301 302 303 304 304 306
285 285 285 284 284 283 283 282 282 282 282 281 281 281 281 281 280 280 280 279 279 279 278 278 278 277 277 277 277 277 277 277 277 277 277 277 276 275 274 272 272 273 273 275 275 276 276 276 277 277 277 279 278 278 278 277 280 283 282 278 278 280 282 285 287 288 288 288 289 289 289 289 289 291 292 293 295 296 297 299 301 302 302 302 302
285 285 285 284 284 283 283 282 282 281 281 281 281 281 280 280 279 279 279 279 278 278 278 278 278 277 277 277 277 277 277 277 277 277 277 277 276 276 275 274 272 270 273 272 274 274 276 275 276 277 277 278 278 277 280 278 278 282 280 277 277 277 280 283 286 287 287 287 288 288 288 288 289 290 290 291 291 292 294 295 295 295 295 296 296
285 285 284 284 284 283 282 282 281 281 281 281 281 280 280 280 279 279 278 278 278 278 277 277 277 277 277 277 277 277 276 277 277 277 276 276 276 276 276 275 274 271 270 271 273 273 275 276 276 276 277 277 276 278 276 276 278 279 277 276 276 276 279 283 284 285 286 287 287 287 287 287 288 288 289 290 290 291 292 292 293 293 294 295 296
285 285 284 283 283 283 282 281 281 281 281 280 280 280 280 279 279 279 279 278 278 277 277 277 277 277 277 276 276 276 276 276 276 276 276 276 276 276 275 276 275 273 272 271 272 274 273 276 276 276 277 275 276 276 276 275 279 278 277 276 276 276 281 282 282 284 285 285 285 286 286 287 287 288 288 289 289 290 292 292 292 293 294 295 296
284 283 283 283 283 282 282 281 281 280 280 280 280 279 279 279 278 278 278 278 277 277 277 277 277 276 276 276 276 275 276 275 275 276 276 276 275 275 275 275 275 275 273 273 270 274 275 274 275 276 275 275 275 274 276 275 277 277 276 276 276 279 280 278 280 282 283 284 284 285 286 286 287 287 288 288 290 290 291 291 292 292 293 294 295
283 283 283 283 282 282 281 281 280 280 280 280 279 279 278 278 278 277 277 277 277 276 276 276 276 276 276 275 275 275 275 275 275 275 275 276 275 275 275 275 274 274 274 273 271 271 275 274 274 275 276 274 274 274 274 275 276 277 275 275 275 278 276 275 278 280 281 283 284 285 285 286 286 287 288 288 289 290 290 291 291 291 292 293 294
283 283 282 282 282 282 281 281 280 280 279 279 279 278 278 277 277 277 276 277 276 276 276 275 276 275 275 275 275 275 275 274 274 274 274 274 275 275 274 274 273 273 273 272 270 270 273 275 274 274 274 274 273 274 273 273 274 274 276 275 275 274 275 275 275 278 280 282 283 284 285 286 287 287 288 288 288 289 289 289 290 290 291 292 293
283 282 282 282 282 281 281 280 280 280 279 279 278 278 278 277 276 276 276 276 276 275 275 275 275 275 275 274 274 274 274 274 274 273 273 273 273 273 273 273 272 272 273 271 271 270 269 272 272 273 273 274 271 273 272 273 273 274 274 274 275 275 275 275 275 276 279 281 283 284 285 286 287 287 287 287 288 289 289 290 290 290 290 291 291
282 282 282 282 281 281 280 280 279 279 279 278 278 278 277 277 276 276 276 276 276 275 275 275 275 275 274 274 274 273 273 273 273 272 273 272 272 272 271 272 271 271 272 272 270 269 269 269 271 271 272 273 272 272 273 273 274 274 273 274 274 275 276 276 275 276 279 282 283 284 285 286 286 287 287 287 287 288 288 289 289 289 289 290 290
281 282 282 281 281 280 280 279 279 279 278 278 278 278 277 277 276 276 276 276 276 275 275 275 274 274 274 273 273 273 272 272 271 271 272 271 271 271 271 271 271 271 271 271 271 269 269 268 270 271 272 272 272 273 274 274 273 273 274 275 275 275 275 276 275 275 277 281 283 283 284 285 285 286 286 286 287 287 287 288 288 288 289 289 289
281 281 281 281 280 280 280 279 279 278 278 278 277 277 277 277 277 276 276 276 275 275 275 275 275 274 273 273 272 272 272 271 271 270 271 270 271 270 270 270 270 271 271 271 270 270 269 268 269 271 272 273 273 273 274 273 274 274 274 274 275 275 275 275 276 277 279 282 282 282 283 283 284 285 285 286 286 286 287 287 288 288 288 288 288
281 281 280 280 280 280 280 279 279 278 278 278 277 277 277 277 276 276 276 275 275 275 274 274 274 273 273 272 272 271 271 270 270 270 270 270 270 270 270 270 270 270 270 270 270 270 270 269 270 270 272 272 272 273 274 274 273 273 274 275 275 275 274 275 276 277 278 277 277 278 280 280 281 283 284 285 286 286 286 287 287 287 287 286 287
280 280 280 280 280 280 280 279 279 278 278 277 277 277 276 276 276 275 275 274 274 274 274 273 273 272 272 271 271 271 271 270 270 270 270 270 270 270 270 270 270 270 270 270 270 270 270 270 270 271 271 273 273 272 273 275 275 274 273 274 274 275 276 276 276 277 277 277 279 281 281 281 282 281 282 284 285 285 285 286 286 286 285 285 286
280 280 280 280 280 280 280 279 279 278 277 277 277 276 276 276 275 274 274 273 273 273 272 272 272 272 271 271 271 271 271 271 270 270 270 270 270 270 270 270 270 270 270 270 270 270 270 270 270 271 272 272 273 274 275 275 274 275 276 274 272 273 275 276 276 275 276 277 276 276 279 280 280 280 282 282 283 283 284 283 283 283 282 283 284
280 280 280 280 279 279 279 279 278 278 277 277 277 276 275 275 275 274 273 273 272 272 271 271 271 271 270 270 271 271 271 273 274 273 273 273 270 269 270 271 271 271 271 271 270 270 270 271 271 273 272 272 273 273 273 274 274 273 275 275 274 274 274 274 275 276 276 276 276 276 276 276 276 276 276 276 277 279 279 281 282 282 282 283 284
280 280 279 279 279 278 278 277 277 277 277 277 278 280 279 275 274 273 273 272 272 271 271 270 270 270 270 270 271 273 274 275 275 275 276 276 275 272 272 272 272 272 271 271 270 271 271 271 271 272 271 272 273 274 274 274 275 275 274 274 272 273 274 274 275 276 277 276 275 274 275 277 276 276 276 276 277 278 278 278 278 279 281 284 285
279 278 279 278 278 278 278 277 276 276 276 276 280 282 281 280 275 273 272 272 272 271 271 270 269 270 270 270 271 273 274 275 275 277 277 277 277 277 276 276 276 274 272 272 272 273 272 272 273 273 272 272 274 274 274 274 275 274 273 273 273 273 272 271 270 274 278 276 275 275 275 277 276 275 276 276 277 277 277 277 281 282 284 285 286
278 278 278 278 278 278 278 277 276 276 276 279 281 282 282 281 278 273 272 272 271 271 271 270 270 270 270 270 271 273 274 274 274 275 277 278 278 279 279 279 279 280 279 276 274 273 273 272 273 273 273 273 273 274 274 274 273 273 274 274 273 273 273 272 272 271 276 278 276 274 273 277 277 276 275 276 277 277 277 280 283 284 285 285 286
278 278 278 278 278 278 277 276 276 276 275 280 282 283 282 282 280 275 272 272 271 271 271 271 271 271 271 271 272 273 274 276 276 275 275 276 278 279 278 278 278 279 279 280 280 277 276 274 273 273 273 273 272 273 274 273 275 273 274 273 274 274 274 273 273 274 275 277 274 272 271 273 275 274 274 276 277 277 278 281 283 284 284 285 285
278 278 277 277 277 277 276 276 276 275 275 279 282 283 283 282 281 277 271 271 271 271 271 271 272 273 273 273 273 273 274 275 275 274 274 273 273 273 273 273 273 275 277 278 278 278 278 275 274 272 274 274 273 274 275 276 274 274 274 273 274 274 274 273 273 273 273 275 271 270 269 270 273 273 273 274 276 276 277 279 283 284 284 285 285
278 277 277 276 276 276 276 275 275 274 274 280 282 283 283 283 282 277 271 271 271 271 272 273 273 274 274 274 274 273 273 274 274 274 273 272 272 271 270 271 272 273 274 274 274 274 274 274 274 274 274 275 275 275 276 277 276 276 276 275 274 272 272 272 271 271 271 273 272 270 266 269 272 271 272 273 275 275 276 279 282 283 284 284 285
277 277 276 276 276 275 275 275 274 273 273 280 282 283 284 283 282 273 271 271 271 272 272 273 274 274 275 275 274 273 273 273 275 276 275 273 272 271 271 272 273 274 274 276 277 278 277 276 276 276 277 278 279 278 278 278 278 278 276 273 272 270 268 266 266 268 269 272 273 270 268 269 272 271 271 274 275 274 276 276 280 283 284 284 285
276 275 275 275 276 275 274 274 273 273 273 279 282 283 284 284 280 271 271 271 271 272 272 273 274 274 275 274 274 272 273 272 275 277 278 276 273 272 272 272 273 272 273 275 277 279 279 280 280 280 280 280 280 280 280 280 278 276 272 268 266 268 266 265 265 266 267 270 271 272 270 268 271 272 272 274 274 275 275 276 277 281 283 284 284
274 274 275 274 274 274 273 273 273 272 272 277 282 283 284 284 279 271 271 271 271 272 272 274 274 274 275 276 274 273 272 272 276 277 278 277 274 273 273 272 272 271 272 274 276 276 277 278 278 277 278 278 278 278 277 276 277 275 269 266 267 268 265 265 264 265 267 268 270 272 269 270 271 272 270 271 272 272 273 275 276 277 280 282 283
274 274 273 273 273 272 273 273 275 273 272 276 282 283 284 284 278 272 272 272 272 272 272 273 273 273 273 275 275 274 273 274 277 277 278 277 274 274 273 272 271 271 273 274 273 272 271 271 272 273 273 272 271 270 270 273 273 272 269 268 267 265 264 265 265 265 264 266 271 273 268 268 269 270 270 267 266 270 272 272 273 274 276 277 278
Wind_Speed
6 6 5 5 5 5 5 6 5 6 5 5 5 6 4 4 4 4 3 4 4 4 3 3 4 4 4 3 3 3 4 4 4 4 4 5 5 6 12 12 12 12 12 12 12 11 11 11 11 11 11 11 12 13 13 14 14 14 15 15 15 14 14 14 14 14 14 14 14 14 14 15 15 16 17 18 19 20 21 21 20 19 18 18 16
7 6 7 7 5 4 5 5 6 4 5 6 4 5 6 4 4 3 4 4 5 3 3 4 4 4 4 4 4 4 3 4 4 5 4 5 5 5 9 11 11 12 12 12 12 11 11 11 11 11 11 10 11 12 13 13 13 13 14 14 14 14 14 15 15 16 15 15 14 13 14 15 15 16 17 17 17 18 19 20 22 21 20 18 17
6 6 6 6 6 6 6 5 5 5 5 5 3 5 4 5 5 5 4 5 5 3 4 4 4 4 3 4 4 4 4 4 4 4 4 6 5 4 5 9 10 11 11 12 12 11 11 11 11 11 11 11 11 12 13 13 13 13 14 14 13 13 13 15 16 16 16 16 16 14 13 14 15 16 17 17 17 17 17 18 19 20 21 20 19
6 6 6 7 6 6 6 6 6 4 4 5 5 4 5 4 4 4 4 4 4 4 3 5 4 5 3 4 3 4 4 4 4 4 4 4 5 5 5 5 8 10 10 11 12 12 12 12 12 12 12 12 12 13 14 13 13 15 15 14 13 12 14 15 16 16 15 15 16 17 16 16 17 18 17 17 17 18 17 17 17 18 19 21 21
7 7 6 6 6 6 6 5 5 5 4 4 4 4 5 5 4 3 4 4 4 4 3 3 4 4 4 4 4 4 3 4 4 4 5 4 5 5 6 5 4 7 9 9 10 12 13 12 12 13 13 13 13 14 14 13 14 16 16 14 13 13 15 16 16 16 16 16 17 17 17 17 17 17 17 17 18 17 17 17 18 17 18 18 19
7 6 6 6 6 6 6 6 6 4 4 5 6 5 6 5 4 5 3 4 5 3 4 5 4 2 3 3 3 3 4 4 4 4 4 5 5 5 5 5 5 5 5 8 9 11 13 13 13 13 14 14 14 14 13 14 16 16 15 13 13 14 15 17 17 16 16 17 18 18 18 18 17 17 18 18 18 18 18 17 17 17 18 17 17
7 8 7 6 7 6 6 6 6 4 6 4 5 5 5 6 5 6 4 4 4 3 3 3 3 5 5 4 5 4 3 4 4 4 5 5 5 4 5 5 5 4 4 5 6 8 11 12 12 13 13 13 12 13 14 15 15 14 13 13 14 15 16 17 16 15 16 18 18 18 19 19 18 18 18 17 17 17 18 18 18 18 18 18 18
8 7 7 7 7 7 6 6 5 5 6 4 4 6 5 5 3 5 6 3 3 3 2 3 3 3 3 4 4 3 5 4 5 4 4 4 4 4 5 4 4 4 4 5 5 5 10 11 12 13 13 13 13 14 14 14 14 13 13 13 14 15 17 17 17 16 17 18 18 18 19 20 20 19 18 18 18 18 18 19 19 18 17 17 17
8 7 7 7 7 6 6 6 5 6 6 5 5 5 6 5 3 2 3 5 4 3 2 3 3 3 3 3 3 3 4 5 4 4 3 4 4 4 4 5 4 5 5 5 5 5 6 11 11 12 12 14 14 13 13 13 13 13 13 14 15 16 17 17 17 17 17 18 18 19 20 20 20 19 19 18 18 19 19 18 18 18 18 18 17
8 7 7 6 6 6 5 6 6 6 6 5 6 4 4 5 6 2 3 5 4 4 2 2 1 2 3 3 4 4 3 4 3 3 5 5 5 4 5 5 5 6 6 5 4 5 4 7 9 10 11 14 15 15 15 15 15 15 14 15 15 16 16 16 16 17 17 19 19 19 19 19 19 19 19 19 19 19 20 20 19 19 19 19 18
8 8 8 7 7 6 6 6 6 6 6 6 5 5 4 3 5 5 3 4 5 3 1 0 0 1 2 3 3 3 2 2 2 4 5 4 3 4 4 6 5 5 5 5 5 5 4 5 6 7 8 14 15 17 17 17 18 17 17 17 17 16 16 15 16 17 19 20 20 19 19 19 19 19 19 19 20 20 20 20 20 20 20 20 19
9 8 8 8 7 7 7 6 6 7 7 7 6 6 7 6 5 6 6 4 3 2 1 0 1 3 3 4 2 3 3 2 3 4 4 4 4 4 6 4 6 5 5 5 5 4 5 6 7 7 7 9 14 15 17 18 19 19 18 18 17 16 16 17 18 18 19 19 19 19 19 19 19 20 20 20 21 20 20 20 21 21 21 21 21
8 8 9 8 7 6 7 6 6 7 7 7 6 7 5 5 6 3 4 4 3 3 2 2 3 2 2 4 5 3 2 1 3 3 5 4 4 6 5 5 6 6 5 5 5 6 6 7 7 7 7 6 6 10 14 16 16 18 19 18 18 18 18 18 18 18 18 18 19 19 19 20 20 21 21 21 21 21 21 22 22 22 22 22 22
9 9 8 9 8 8 8 8 7 7 5 4 5 5 5 6 6 5 2 3 2 2 3 1 5 2 2 5 6 4 3 3 3 0 3 3 3 4 4 5 6 5 6 6 6 6 6 6 6 6 6 5 4 5 7 7 9 17 18 19 19 18 18 18 18 18 18 18 18 19 20 20 21 21 21 21 21 21 21 22 22 22 23 23 23
9 9 9 9 9 9 8 7 7 7 7 7 6 6 6 7 5 7 5 3 3 1 4 2 3 2 2 2 3 4 3 4 2 2 1 0 2 2 1 4 4 3 4 5 6 6 5 6 6 6 5 4 5 5 6 6 7 14 16 18 18 18 18 18 18 19 19 19 19 19 20 20 21 21 21 21 22 22 22 22 22 22 21 22 23
10 9 8 8 9 9 7 7 7 6 7 8 8 7 6 5 4 4 8 4 2 1 2 3 3 3 3 2 0 1 1 1 5 6 3 2 3 2 1 3 3 4 4 4 4 5 5 6 6 6 5 4 5 6 6 5 8 9 11 13 17 18 18 18 18 19 19 20 20 20 20 20 21 21 22 23 23 23 24 24 23 23 22 22 22
9 10 9 9 8 7 8 7 7 7 7 7 8 9 7 6 6 6 5 8 4 2 1 2 1 0 5 3 1 1 2 1 3 6 3 2 1 1 1 1 1 2 2 3 3 3 4 5 5 5 5 4 5 5 6 6 6 5 8 10 14 17 17 18 19 19 20 20 20 20 20 20 21 22 22 23 24 24 24 24 24 24 23 23 23
10 10 9 8 9 8 7 8 7 7 7 7 5 5 6 7 7 6 5 2 7 5 2 0 2 3 2 1 2 2 3 2 1 2 4 1 3 1 0 1 1 1 1 3 3 4 3 4 4 5 4 4 4 5 5 5 5 6 6 8 16 16 16 17 18 19 20 20 20 20 20 20 20 21 22 23 24 25 25 25 25 25 25 24 23
10 10 9 9 8 8 9 8 8 7 5 6 7 8 7 6 5 5 5 5 7 5 7 5 2 2 2 3 5 3 5 5 3 1 4 4 3 1 2 2 0 0 3 4 3 3 4 3 5 5 4 3 3 4 4 5 5 6 8 11 13 14 15 16 17 18 19 19 19 20 20 21 21 22 23 24 25 25 26 26 26 26 25 25 25
10 10 10 10 10 9 9 9 8 8 7 8 8 6 6 4 5 4 5 6 7 9 7 7 7 4 2 3 4 4 3 3 3 5 2 2 6 2 2 3 2 3 5 3 4 5 4 4 5 5 4 3 3 3 3 3 3 4 4 9 10 13 14 15 15 15 16 18 19 20 21 21 22 23 24 25 26 26 27 27 27 27 27 27 26
10 10 10 10 10 10 10 9 9 9 8 7 6 7 9 9 8 7 7 7 5 5 8 8 6 8 7 2 4 3 3 2 3 2 4 3 5 4 2 2 4 7 5 3 4 4 3 4 6 5 4 3 3 3 3 3 3 3 4 7 10 12 13 14 15 16 17 18 19 20 21 22 23 24 24 25 26 27 27 28 28 27 27 28 27
9 9 10 10 10 10 10 11 10 9 8 9 8 8 8 8 8 8 7 7 5 7 8 7 6 6 7 8 6 4 2 1 1 3 1 3 5 4 2 2 6 3 2 7 4 4 5 5 6 5 4 4 4 3 3 3 2 2 3 9 10 12 14 16 17 17 17 17 18 19 20 22 22 23 24 25 26 26 26 27 27 28 28 28 27
9 9 10 10 10 10 10 10 9 9 9 9 10 10 9 9 8 7 8 9 7 7 5 5 6 7 6 8 9 10 9 6 7 5 4 3 2 5 3 4 3 10 2 3 6 9 6 4 5 5 3 4 3 2 2 2 3 3 10 11 13 15 16 16 16 16 16 18 19 20 21 22 22 23 23 24 25 25 24 25 25 26 27 27 27
9 9 10 10 10 9 9 9 10 10 10 9 8 9 8 8 8 8 8 7 6 7 7 8 7 6 6 6 6 6 5 6 6 6 6 4 3 6 7 2 5 7 3 5 6 7 5 4 4 4 4 3 3 1 1 0 1 9 6 10 13 13 14 15 16 17 18 19 20 21 21 22 22 23 24 24 24 25 25 25 25 25 26 27 28
12 12 11 12 11 10 11 11 10 10 9 9 8 9 9 9 9 9 8 9 9 9 9 9 10 10 9 6 6 6 6 5 6 6 5 5 4 3 3 2 5 9 3 2 2 2 6 6 5 5 3 3 1 1 1 3 3 8 9 4 11 12 14 16 17 18 19 19 19 21 21 21 22 23 24 24 25 26 26 26 26 26 27 27 27
14 15 13 12 11 11 10 10 9 8 9 10 9 10 10 10 10 10 10 8 8 9 8 8 7 6 6 7 6 7 6 6 6 7 6 6 5 5 2 2 1 8 7 6 2 6 3 2 2 3 3 2 0 3 2 2 3 7 9 5 7 13 15 16 18 19 19 19 21 21 21 22 23 24 25 25 26 26 26 26 26 27 27 27 28
13 11 10 13 13 11 11 11 10 9 9 9 9 9 9 8 8 9 8 8 9 8 7 9 9 8 7 7 7 6 7 6 6 6 6 6 6 5 5 2 4 3 5 2 5 4 9 3 1 2 2 1 3 2 3 3 4 9 10 6 6 13 16 19 20 21 21 21 21 22 22 23 24 25 25 24 25 25 25 26 26 27 27 28 28
9 10 12 12 13 13 11 12 10 10 10 10 10 10 10 10 9 8 10 6 9 10 8 8 8 8 7 6 6 6 6 7 6 6 6 6 5 5 5 5 4 5 3 5 3 5 4 5 2 1 1 4 2 1 0 2 2 11 9 5 6 7 15 19 20 21 21 22 22 23 24 24 26 26 26 26 27 27 27 27 27 28 28 28 28
11 11 12 12 12 13 12 12 11 11 10 10 10 10 10 10 10 10 10 8 9 10 8 8 7 7 6 7 7 6 6 6 6 6 6 6 6 5 6 7 6 3 2 3 2 3 3 4 2 2 3 2 2 4 3 3 6 10 5 5 6 6 13 19 20 21 22 23 24 25 25 26 26 28 28 27 28 28 28 28 28 28 29 29 30
10 9 11 13 13 13 12 12 11 11 12 10 10 10 10 9 9 9 8 8 8 6 7 7 8 7 6 6 5 6 6 6 7 6 6 6 6 6 6 5 6 7 6 4 6 3 5 2 3 2 2 1 3 5 5 6 12 12 7 7 7 7 17 19 20 21 22 23 23 24 25 26 27 28 29 28 29 29 29 29 29 29 29 30 30
11 11 12 12 12 12 12 11 11 12 11 11 10 9 9 8 8 8 7 8 8 8 7 8 7 8 8 8 6 6 6 7 6 6 5 6 6 6 5 5 6 6 6 4 3 5 5 5 1 0 0 1 2 2 4 5 9 12 10 10 9 15 19 14 19 21 22 24 25 26 26 27 27 28 29 29 29 30 29 30 30 30 30 31 31
10 12 12 13 14 14 12 12 11 11 11 10 10 10 9 8 8 8 8 9 9 9 8 7 7 8 8 9 8 7 7 6 6 6 6 5 5 6 5 6 5 5 5 6 9 11 3 3 3 4 5 3 5 7 5 4 4 9 8 9 11 16 10 8 14 18 20 23 24 25 26 27 28 29 30 29 30 30 30 31 31 31 31 31 31
12 13 14 14 14 13 13 13 13 13 12 11 10 10 10 9 8 8 8 9 10 8 8 8 7 7 8 8 8 7 7 7 6 6 6 6 5 5 5 5 5 5 6 7 9 10 7 5 6 4 1 3 3 3 7 5 7 7 7 7 7 7 7 7 8 13 19 22 23 24 25 26 27 28 28 28 29 30 31 31 32 31 31 31 31
13 14 15 13 13 14 13 13 12 12 12 12 12 11 12 11 10 7 9 10 10 9 9 9 9 8 8 9 8 7 6 7 6 6 6 6 5 5 5 6 6 6 5 6 8 9 9 3 7 4 3 2 4 3 5 7 8 8 9 8 6 6 6 7 8 8 17 20 22 23 24 26 26 27 27 27 29 30 31 31 31 31 32 32 32
11 13 14 14 14 14 14 13 13 13 13 13 12 12 12 12 12 11 10 12 12 12 12 12 11 9 9 8 8 7 6 7 6 6 6 6 5 6 6 4 5 5 4 6 4 6 8 7 5 7 4 3 3 5 6 6 7 7 9 8 8 7 7 8 9 8 14 19 22 22 24 25 26 26 27 29 30 30 30 31 31 31 31 32 32
13 12 13 14 14 15 15 15 15 15 14 14 13 13 14 14 13 13 12 12 11 11 12 11 11 11 11 9 8 8 7 8 6 6 6 5 6 5 5 4 4 5 4 4 6 6 4 9 3 5 6 5 5 5 7 6 6 6 7 9 7 8 8 8 8 8 10 18 21 22 24 25 26 27 28 29 28 29 29 29 29 29 31 32 32
13 13 13 13 14 15 16 17 17 16 16 16 15 14 13 13 13 13 13 12 12 11 11 11 11 11 10 10 10 9 9 8 6 7 6 7 5 5 5 5 5 5 4 5 6 6 7 8 8 6 6 6 6 5 5 8 7 7 7 8 8 8 8 7 6 7 13 19 22 24 24 25 26 27 28 28 28 27 27 28 29 29 29 30 32
13 14 14 13 15 17 16 16 17 17 16 16 17 16 16 14 13 12 12 11 11 10 10 9 10 9 10 9 9 9 9 9 8 7 7 7 6 6 6 6 5 5 6 6 6 7 8 9 8 9 5 7 6 5 5 5 9 11 9 7 7 5 5 7 6 6 6 7 8 9 14 18 21 25 25 25 27 28 28 28 28 28 29 29 30
14 14 14 16 15 17 18 16 17 17 17 16 15 15 14 14 14 13 12 11 10 9 9 9 9 9 8 8 9 9 9 8 8 9 8 8 7 8 8 7 6 6 6 6 6 7 7 8 7 7 8 5 6 8 4 5 8 9 13 12 8 5 8 8 11 8 7 10 13 20 20 19 21 19 24 28 28 28 28 28 27 29 30 32 33
14 16 16 16 15 14 15 15 16 15 15 15 14 14 14 14 13 13 12 12 11 9 9 9 9 8 8 8 8 8 9 8 9 8 9 9 8 8 7 6 5 6 6 6 5 6 6 6 6 8 7 9 7 5 5 5 6 7 5 9 15 12 10 9 7 12 11 11 14 11 11 14 16 19 23 24 27 27 30 29 30 32 35 35 34
12 14 13 14 13 13 12 13 13 12 14 14 13 14 14 14 12 13 13 12 12 12 10 9 8 8 8 7 8 8 9 11 13 11 11 9 7 7 6 6 5 6 6 5 4 4 4 5 7 8 9 9 8 8 10 8 10 10 10 11 12 13 13 14 9 5 10 13 12 13 11 7 10 12 10 11 13 17 21 28 25 34 36 35 35
13 12 12 13 14 15 14 13 12 12 12 11 13 21 18 15 14 12 11 11 12 11 12 10 9 9 8 8 7 14 15 15 15 16 16 15 13 8 6 7 7 7 6 6 6 5 5 6 6 9 10 10 10 11 10 10 8 10 10 11 16 15 14 14 14 6 7 12 13 14 12 6 9 13 10 12 11 11 13 14 15 19 26 33 34
13 12 13 15 15 14 15 15 15 14 12 11 19 23 23 22 15 13 13 12 11 11 11 12 11 10 8 8 7 12 13 14 13 17 15 15 14 14 15 13 11 8 6 7 6 5 5 6 7 8 9 12 11 10 11 9 10 9 11 12 11 12 15 16 19 14 5 7 20 19 14 1 5 14 14 11 10 11 13 14 23 29 33 33 34
12 12 14 15 14 15 14 15 16 15 13 16 24 25 24 25 20 13 12 12 11 11 11 11 9 9 9 9 8 7 9 10 8 9 12 14 14 15 16 16 16 16 14 8 6 5 5 6 6 6 9 11 12 11 10 9 11 14 11 11 12 16 13 16 15 15 13 10 15 23 23 9 5 12 16 12 7 10 14 22 29 33 34 34 34
11 13 15 15 16 14 14 16 15 13 12 19 25 26 25 26 25 17 11 11 12 11 11 11 11 9 9 9 9 8 7 15 11 8 7 7 11 15 14 14 14 15 14 16 16 10 6 7 8 9 9 11 13 11 8 10 12 15 15 13 11 12 16 14 18 13 10 12 15 20 24 16 7 11 17 17 9 10 14 22 31 31 32 33 34
13 14 13 15 14 14 15 15 14 13 12 18 25 25 25 26 25 19 11 12 11 11 12 11 9 10 11 9 9 8 8 10 9 8 7 7 5 4 4 3 3 7 12 14 15 16 13 8 7 9 9 8 13 13 13 13 14 12 13 15 14 11 11 12 15 16 15 10 12 18 23 21 5 10 16 16 11 15 14 19 30 33 33 33 33
14 15 14 14 13 12 12 12 11 12 11 21 25 26 25 26 25 18 10 10 9 9 9 9 10 9 10 9 9 9 9 8 7 8 6 6 5 5 4 5 5 5 6 5 6 6 8 8 9 10 12 11 12 12 12 10 11 13 13 13 11 11 14 15 16 14 14 10 10 12 20 21 9 12 15 14 13 16 14 18 29 33 33 33 33
7 7 8 9 11 12 12 12 12 12 10 23 24 25 26 25 26 13 11 11 10 10 9 9 9 9 9 10 9 8 8 8 11 15 11 7 7 8 8 8 6 6 5 7 12 13 11 9 9 9 9 10 16 16 15 14 13 10 10 12 13 13 14 14 15 12 12 8 8 12 17 18 12 15 17 15 13 16 17 13 21 29 32 33 33
9 10 10 10 10 11 13 12 13 11 11 21 26 26 27 28 20 11 11 10 10 10 10 10 10 10 9 10 10 9 9 9 12 16 17 15 9 10 8 6 4 4 6 7 12 16 16 16 18 20 21 22 22 23 23 22 16 15 12 13 13 9 12 13 15 12 12 8 7 12 16 17 14 16 17 16 16 18 17 13 12 21 29 31 33
10 10 8 8 8 9 12 13 14 13 12 19 27 27 28 30 19 14 12 12 11 10 10 9 9 8 10 16 12 10 10 10 16 17 17 13 8 7 5 5 5 6 6 6 6 5 10 16 18 20 22 22 19 16 17 20 24 19 9 12 10 7 12 12 15 15 16 12 10 10 14 12 15 14 16 16 20 17 15 12 15 17 26 25 31
8 7 8 8 8 8 10 11 12 13 11 16 26 27 29 30 20 13 12 12 12 11 11 10 8 8 9 13 16 12 11 12 19 18 18 13 7 7 7 6 7 8 6 4 4 4 4 6 9 8 6 7 7 11 13 19 19 16 11 11 9 8 11 12 11 13 16 13 3 4 13 12 15 17 12 14 16 16 12 13 15 15 15 14 14
Wind_Direction
167 166 154 158 155 154 151 146 139 144 137 135 135 136 128 129 118 114 106 96 84 69 65 57 49 46 46 33 26 18 15 13 10 3 3 360 352 346 355 357 359 1 3 2 3 7 8 11 12 16 16 16 14 14 12 10 11 10 9 8 8 9 10 10 9 8 6 4 2 360 356 350 348 348 348 349 349 348 347 341 328 319 313 306 298
169 165 162 164 163 156 147 152 148 152 139 138 152 134 135 122 110 98 89 77 65 52 59 54 39 34 30 24 17 11 7 10 4 3 355 353 349 344 349 354 356 358 0 1 4 10 10 13 15 16 17 17 16 15 13 10 9 9 8 7 6 8 12 12 11 8 5 3 3 2 359 357 355 352 350 349 348 347 346 347 347 337 319 311 305
167 168 166 162 162 158 158 157 151 164 152 144 148 138 130 119 117 107 92 78 67 45 57 54 39 29 17 19 3 2 7 7 2 0 359 351 346 343 340 350 353 355 357 357 3 9 12 14 17 15 17 16 14 15 11 7 7 9 8 6 5 9 13 12 8 4 2 2 2 0 4 3 2 0 357 354 351 349 346 345 343 341 340 329 316
168 171 170 166 166 163 162 159 168 167 153 145 136 129 117 111 100 90 84 80 64 48 41 54 37 21 5 11 360 4 5 3 1 357 353 353 346 341 340 339 346 352 355 353 359 1 10 15 12 14 14 13 14 12 8 6 9 9 5 3 4 11 12 9 6 3 1 3 4 2 3 6 4 359 356 356 356 355 352 349 344 341 337 339 339
174 174 173 171 164 160 164 171 169 162 152 144 129 120 106 99 85 86 72 65 64 41 33 49 39 5 1 358 359 4 1 2 1 359 356 349 349 340 336 338 340 345 347 350 353 358 4 10 11 13 15 16 15 8 4 9 10 4 2 0 8 10 8 5 3 2 3 4 4 3 2 2 0 358 354 353 353 352 351 350 349 344 339 337 336
166 174 170 168 169 169 166 170 172 164 147 143 136 135 123 112 115 97 81 76 74 45 40 31 12 344 359 343 357 356 357 2 3 357 351 353 346 345 338 336 341 339 337 342 352 358 3 8 10 14 15 15 10 3 4 8 4 1 359 2 7 4 4 2 0 1 3 3 1 359 359 360 358 355 352 350 350 350 348 348 349 350 347 340 334
172 168 173 171 170 171 176 177 166 158 149 153 137 125 123 127 127 105 92 78 76 62 58 47 12 359 345 345 344 348 4 5 358 5 2 349 351 346 341 340 337 339 335 347 350 354 1 9 16 17 17 17 12 9 7 3 0 359 357 358 359 358 360 0 358 358 2 1 359 358 359 358 356 355 352 349 348 347 346 347 349 350 351 351 347
171 168 170 177 176 176 179 168 166 152 148 143 131 134 130 121 126 132 111 98 97 55 39 37 9 351 332 335 340 353 2 1 4 3 357 357 357 347 345 338 334 337 356 356 355 353 357 11 18 21 19 14 9 5 1 357 357 357 356 355 356 355 357 357 355 356 360 359 358 358 358 356 354 352 350 350 348 346 344 343 344 344 344 345 346
172 172 169 175 177 178 176 169 161 153 150 150 141 144 137 128 107 114 122 126 104 92 36 23 1 337 321 333 357 4 6 4 358 353 359 14 355 349 346 348 350 2 3 360 359 356 356 9 17 17 14 8 4 1 356 356 359 356 352 353 353 353 355 355 353 355 358 358 356 355 354 351 349 347 347 348 348 345 343 340 339 340 339 340 341
172 172 172 176 175 174 170 168 162 153 149 149 150 139 135 131 120 88 111 110 97 83 41 0 342 333 335 340 3 20 5 8 357 9 19 8 355 355 351 347 2 4 2 4 2 358 3 2 10 13 11 5 5 3 1 2 0 355 353 353 351 350 351 353 353 356 356 353 351 350 350 348 346 345 346 347 347 345 342 340 338 336 336 335 335
172 171 170 173 173 174 173 174 163 157 151 146 144 142 137 133 129 115 86 95 115 123 123 241 294 331 348 342 11 8 17 18 49 19 20 9 356 354 360 7 9 6 4 6 358 3 360 0 10 14 6 2 4 5 3 3 359 353 351 349 348 350 352 356 358 355 352 349 348 348 348 347 346 346 346 346 344 342 340 339 337 336 334 333 332
174 174 172 173 174 177 176 174 170 160 158 156 161 160 155 136 139 129 119 92 67 94 58 93 114 68 22 352 33 24 12 74 72 52 35 34 23 13 11 4 25 5 9 355 357 1 1 9 17 9 6 357 360 5 3 1 356 350 348 348 351 354 356 356 353 350 347 348 348 348 347 346 345 346 345 343 341 339 338 337 336 335 334 332 331
175 172 178 174 177 173 170 179 173 169 169 173 164 158 158 150 138 123 123 94 43 16 33 70 51 18 21 16 354 20 32 81 110 65 44 32 30 25 354 24 23 16 355 359 12 7 10 13 8 3 358 355 353 359 1 358 354 350 349 351 351 350 349 348 347 347 349 349 348 347 346 345 344 343 342 340 337 336 335 334 334 333 331 331 329
177 178 175 176 173 177 181 180 175 173 168 151 155 158 150 145 145 83 37 121 86 355 335 92 28 91 21 335 346 359 28 71 115 33 35 33 48 32 343 34 26 5 1 14 4 6 5 3 359 352 343 346 350 359 357 354 349 350 351 352 349 347 346 347 348 349 349 349 348 347 346 344 342 340 339 338 336 333 331 331 331 330 329 329 328
179 181 178 180 181 177 185 175 175 163 154 162 165 161 163 160 165 136 107 55 97 17 6 51 135 124 142 84 1 10 333 8 337 313 31 68 80 41 349 45 27 1 4 13 1 354 352 352 345 339 332 338 348 353 353 348 343 350 352 352 350 348 348 348 348 348 349 349 348 347 345 343 341 339 338 336 334 332 331 330 328 328 328 327 327
182 180 179 183 180 183 171 175 176 176 170 164 169 169 163 163 148 142 132 109 75 17 6 10 116 116 20 62 176 95 326 347 335 303 23 109 89 84 49 50 18 12 24 15 340 346 342 342 337 329 325 332 347 350 346 343 345 346 346 346 346 348 348 348 348 348 348 348 347 346 344 343 341 339 337 335 333 331 329 327 327 327 326 325 325
178 183 182 182 181 176 175 177 174 180 175 172 176 178 174 168 162 150 153 141 148 135 340 15 357 265 146 104 43 19 219 257 352 290 344 352 21 106 69 45 29 42 39 332 333 332 327 331 325 321 316 335 342 345 341 339 342 343 342 343 339 348 349 348 348 347 346 345 345 343 343 342 340 337 335 333 331 328 326 325 324 325 325 325 324
183 182 185 176 178 178 174 171 179 180 184 180 165 153 167 168 184 165 142 139 135 128 109 331 1 4 59 127 165 174 172 220 103 277 327 294 291 270 106 264 89 60 358 307 311 306 315 313 312 301 306 322 335 337 334 331 333 336 341 336 345 350 349 348 346 345 343 342 341 340 340 339 338 336 335 333 330 328 326 326 325 325 324 322 321
186 185 183 179 175 175 176 179 179 179 172 161 175 183 175 170 159 156 162 139 128 128 155 176 53 10 31 60 78 87 125 124 199 47 330 317 4 316 305 308 186 358 336 290 280 294 292 296 295 294 300 308 329 322 324 323 324 329 335 335 346 349 348 347 345 341 339 340 340 340 338 337 336 334 332 329 327 325 323 322 322 321 321 320 319
184 187 183 180 177 175 176 176 176 180 174 180 180 172 152 149 157 159 147 160 155 144 161 172 156 184 131 92 87 82 87 90 134 161 171 249 308 314 303 318 286 312 308 265 292 295 291 290 291 295 288 291 300 305 303 309 311 317 323 330 352 351 347 344 340 338 340 340 338 334 332 331 330 328 326 323 320 318 317 316 316 316 315 315 315
191 186 186 183 180 180 176 176 177 179 179 175 175 169 171 164 164 165 169 168 161 150 148 178 170 162 148 101 102 98 89 89 139 129 159 173 265 212 270 329 296 284 251 232 289 267 248 263 276 278 274 285 288 283 291 295 305 311 309 337 355 349 346 344 341 337 335 332 329 327 325 324 323 322 320 318 316 315 315 314 313 312 311 311 311
194 191 188 188 184 180 180 181 180 176 178 180 170 171 174 175 176 171 166 164 163 158 169 171 177 167 168 151 138 119 85 79 142 148 201 191 235 237 202 250 311 277 237 280 270 275 272 281 286 280 279 276 277 278 288 300 304 313 322 4 358 353 343 333 329 328 327 325 325 324 322 321 321 318 317 315 314 313 313 313 313 313 313 312 310
187 195 192 188 188 184 184 184 179 179 179 175 181 178 177 172 170 164 170 168 167 161 152 164 159 165 166 168 168 170 171 170 185 182 160 178 261 249 178 172 226 295 251 164 308 294 278 271 270 273 265 272 274 279 288 289 293 17 31 11 352 338 332 332 333 331 328 325 323 321 320 319 318 316 314 312 311 309 309 310 311 312 312 310 309
189 192 195 188 186 189 187 182 185 182 185 182 177 177 171 165 166 173 175 170 159 157 158 161 168 169 175 176 172 162 148 141 164 155 151 168 168 279 300 280 257 204 237 296 247 251 277 268 252 251 258 248 259 258 281 355 32 27 27 355 340 337 335 333 330 325 322 321 320 321 321 321 318 315 314 312 310 309 308 308 308 308 307 307 306
198 194 197 186 186 186 188 190 189 191 182 177 179 174 171 172 174 175 173 173 174 167 167 177 171 175 179 178 163 161 161 153 143 147 147 139 144 245 288 33 294 301 267 24 309 222 230 217 237 257 244 243 241 126 97 93 39 360 1 346 340 334 330 327 325 324 324 324 324 325 325 323 321 318 316 313 311 310 309 309 308 307 305 304 302
190 199 189 184 191 193 188 194 193 184 182 182 178 178 175 176 176 176 179 175 163 173 174 169 175 173 158 162 170 166 163 158 153 145 152 145 160 188 262 335 277 288 309 335 335 2 331 229 226 233 238 247 131 99 114 47 14 350 354 350 329 328 327 327 328 328 328 327 327 328 325 322 319 316 313 311 310 309 308 308 307 306 304 303 302
195 192 175 187 191 185 189 189 189 186 182 181 180 179 180 176 179 179 172 169 172 168 170 167 171 172 171 168 163 163 164 162 151 159 156 166 157 155 151 266 312 243 272 286 299 239 257 310 213 235 204 137 113 121 59 25 346 347 349 340 324 329 330 331 331 331 330 329 327 324 321 319 317 316 315 314 313 312 310 309 308 306 305 304 302
189 179 189 185 188 189 187 192 185 184 185 184 181 181 181 178 177 176 177 173 169 173 171 169 173 172 168 162 157 171 162 158 155 154 156 157 151 149 146 161 182 287 302 290 254 271 240 236 316 226 76 117 129 111 21 29 335 345 344 328 325 322 328 328 329 329 327 325 323 321 320 319 319 318 317 316 315 313 311 309 306 304 301 299 297
188 184 181 186 188 189 189 188 186 184 183 187 184 184 181 183 182 178 179 174 171 175 163 171 171 166 165 175 170 163 162 151 150 151 153 148 154 161 168 175 177 190 264 274 265 251 285 192 181 309 113 120 35 357 6 353 340 342 331 324 317 317 321 326 328 327 325 325 325 322 319 318 316 316 314 313 312 309 308 305 302 300 298 296 294
178 181 179 183 189 188 188 188 186 183 186 184 184 183 181 188 186 187 179 165 164 158 169 165 168 165 165 168 167 163 162 154 158 156 152 155 157 168 173 177 175 196 208 240 273 209 272 245 198 217 161 5 17 0 2 342 338 335 324 317 315 311 322 327 326 324 323 322 319 317 314 312 312 312 311 309 308 306 303 302 300 298 296 294 293
182 178 182 184 185 189 189 188 184 186 183 184 180 181 183 183 183 181 169 168 167 170 172 167 170 166 171 174 170 166 165 158 153 150 150 151 157 163 174 171 196 194 210 232 271 249 206 245 298 158 158 358 23 354 353 337 326 323 321 316 315 317 323 323 322 321 321 319 317 315 314 311 309 308 308 305 304 303 301 300 299 297 295 294 292
182 180 182 184 186 187 188 186 185 184 184 183 179 179 180 187 181 179 176 171 172 173 173 175 169 174 171 174 178 171 168 154 153 151 151 153 155 167 172 184 194 197 196 215 239 246 221 254 285 302 318 357 353 332 318 305 290 299 298 304 307 314 318 313 314 312 311 310 309 309 309 309 308 308 307 304 303 301 299 297 297 295 294 292 291
183 186 185 187 185 186 185 186 185 185 183 181 180 176 181 184 185 181 173 177 174 175 170 175 176 173 178 175 178 176 164 157 156 151 153 157 161 168 176 181 201 201 193 221 241 273 265 262 276 275 272 24 318 301 298 301 303 295 285 281 283 290 296 296 297 297 299 300 301 301 301 303 302 301 300 299 299 298 298 297 296 294 292 292 292
184 186 187 184 184 182 183 186 186 187 186 184 179 178 181 181 183 179 179 179 179 177 175 180 178 180 176 173 176 171 168 154 154 160 157 162 168 173 188 187 208 209 209 208 249 263 284 262 285 273 266 249 261 256 276 297 294 295 295 294 287 280 287 290 290 290 289 293 296 295 298 300 297 296 295 296 297 296 295 295 294 293 293 292 291
187 188 187 184 182 181 182 183 184 186 186 184 182 181 184 183 182 183 184 184 183 180 182 184 180 173 173 177 176 167 161 156 163 160 157 169 170 182 194 193 207 218 211 221 236 260 273 277 276 291 260 227 236 274 268 263 270 276 286 291 296 294 287 286 286 287 286 290 292 292 294 296 293 293 293 295 295 293 293 293 294 295 294 292 291
186 190 187 184 180 182 183 183 186 186 185 185 184 185 184 182 184 186 185 189 189 189 185 179 176 177 178 171 177 169 164 160 164 162 171 167 176 179 189 203 206 216 220 220 232 254 280 291 232 275 287 281 260 252 269 267 267 269 275 288 281 283 281 275 276 279 277 281 287 288 290 290 289 292 292 292 291 293 295 294 295 295 294 293 290
189 184 187 183 182 182 186 187 187 186 187 183 182 185 185 184 185 184 187 188 190 189 186 182 179 176 176 180 171 169 166 161 168 172 171 176 175 175 192 200 205 213 220 221 234 240 258 263 283 269 274 274 265 261 261 295 296 288 286 283 289 288 280 264 266 262 269 279 283 285 286 285 285 289 290 293 294 293 293 292 292 293 292 292 291
189 190 185 184 186 189 191 189 188 186 183 185 186 185 183 181 183 185 186 187 187 184 183 182 180 179 178 174 173 170 170 170 175 168 173 176 174 183 193 200 199 210 215 228 232 238 247 262 276 293 272 295 294 278 294 291 302 305 299 294 292 283 283 295 278 280 279 273 282 274 272 276 278 280 284 290 291 289 290 289 289 287 287 287 287
189 189 191 189 193 190 192 188 187 185 185 185 185 184 183 181 181 181 181 182 181 179 183 181 179 177 175 172 172 173 172 170 169 174 173 176 182 191 195 195 206 207 224 232 235 244 250 268 276 276 288 274 283 299 271 278 290 294 307 316 310 303 298 298 302 295 287 282 271 277 281 282 282 284 287 288 287 286 286 286 284 283 285 286 285
194 193 192 193 194 194 193 189 190 184 182 184 184 183 182 181 179 180 177 175 175 176 175 177 176 176 175 173 174 175 173 173 174 175 175 180 177 192 193 192 203 218 230 237 238 245 258 268 277 295 297 299 291 265 267 270 294 305 302 315 312 316 309 301 299 308 304 290 290 283 266 274 277 272 274 276 278 278 280 281 280 281 281 282 280
195 195 193 191 188 194 194 192 187 186 186 186 183 181 179 180 180 176 174 173 173 172 172 175 176 174 173 175 176 177 177 180 183 183 186 181 176 181 191 188 206 219 230 230 229 242 261 270 287 297 297 300 300 312 320 325 324 318 318 316 304 309 309 308 296 271 282 292 289 280 278 261 266 267 258 259 260 264 267 270 273 274 277 276 277
193 191 190 191 192 191 187 186 185 187 192 190 187 182 179 176 173 172 171 175 174 173 170 171 176 178 177 174 179 183 185 189 192 194 195 195 192 185 187 194 202 214 220 227 237 239 252 277 282 297 300 298 308 312 311 311 312 313 312 317 311 313 310 302 303 297 296 293 290 284 280 261 267 270 261 264 268 261 264 264 261 268 273 275 274
191 188 187 191 193 188 187 186 186 190 191 187 183 183 181 175 170 170 171 173 173 172 175 174 176 176 175 175 174 188 188 192 196 199 198 197 201 202 204 210 209 207 208 226 239 249 262 264 282 286 286 294 301 308 307 314 314 314 311 308 304 306 309 311 313 316 152 323 309 301 295 208 222 285 279 262 265 264 262 259 263 269 277 277 277
192 188 194 195 190 190 190 189 190 190 188 182 183 183 180 177 173 170 170 170 171 175 174 175 174 171 169 171 179 184 190 189 186 197 201 204 209 215 221 229 237 244 246 241 249 255 259 272 278 279 296 296 303 306 306 314 312 308 303 301 300 303 300 302 294 300 314 332 313 308 297 304 299 281 282 276 260 258 260 270 272 280 280 277 276
183 191 197 190 196 192 189 190 192 189 189 183 183 182 180 178 174 169 173 169 171 174 174 175 174 168 168 171 174 181 187 189 188 187 189 207 217 220 227 233 240 245 253 259 262 266 278 282 283 287 286 297 298 296 300 302 304 303 303 301 300 296 293 286 293 302 315 334 315 296 293 299 319 283 286 290 287 268 270 275 280 282 283 281 277
194 198 195 196 193 192 192 190 188 186 184 183 183 182 180 178 174 169 169 168 170 172 173 173 172 170 172 168 168 172 176 184 182 174 179 194 203 225 238 253 263 259 262 269 274 278 279 281 292 289 292 285 284 290 292 297 299 296 303 298 301 298 304 299 306 302 301 311 296 295 293 293 329 296 289 292 296 283 273 277 284 285 284 282 279
195 197 195 195 196 192 190 186 184 184 183 182 184 183 181 178 175 163 162 165 166 169 167 166 166 162 164 165 168 167 169 171 170 164 165 174 184 205 217 226 234 239 248 261 269 270 268 267 268 268 272 273 275 281 289 291 290 293 295 306 325 316 304 302 295 292 294 293 283 282 279 291 323 296 286 286 288 279 273 276 279 281 282 280 279
200 195 203 198 193 191 187 183 183 184 180 184 184 183 180 177 171 156 164 167 169 170 170 168 164 165 167 166 165 165 162 163 178 186 186 178 188 198 208 215 220 230 239 260 266 266 265 260 258 261 268 277 287 291 297 300 301 312 321 319 315 311 307 300 292 301 289 296 279 277 280 291 309 296 291 285 277 276 278 273 273 277 282 279 277
193 196 199 196 195 189 185 185 183 181 177 186 186 184 181 177 167 155 163 165 169 170 171 169 167 170 169 169 167 161 167 168 181 191 191 189 192 198 198 196 211 244 253 249 265 273 275 281 285 289 291 293 294 295 296 304 311 315 319 309 298 308 301 300 294 295 285 294 273 277 281 288 296 292 291 292 299 295 293 288 280 278 278 279 277
194 198 188 192 194 191 189 190 187 180 182 187 187 185 181 182 165 159 165 167 169 169 167 169 169 170 173 173 165 164 170 171 185 193 197 196 179 174 176 208 217 235 249 250 255 270 286 288 289 288 288 288 293 305 313 309 302 304 300 287 296 309 288 285 289 293 295 288 279 270 275 279 303 304 304 300 294 279 279 285 294 290 285 279 279
196 181 181 187 190 191 195 192 187 183 180 189 189 188 183 183 167 163 164 167 166 170 168 166 163 161 167 174 176 174 174 182 189 195 195 191 170 181 187 201 225 233 233 248 275 287 291 282 275 275 291 306 314 303 299 300 298 296 286 280 289 280 278 279 279 292 294 286 238 292 293 296 300 292 300 301 290 286 281 281 285 289 292 291 284